User: anonymous   Login
Location: Grand Rapids
(42.9630°N, 85.6680°W)
Time: 03:43:54
(UTC-04:00)
Language:

S-56A Canister/Altair - Orbit

View from above orbital plane
View from above orbital plane
View from above satellite
View from above satellite

Ground track
Ground track

The orbit data is extracted from the following two-line orbital elements,

1 00082U 61004B   24150.77887486  .00000629  00000-0  55231-3 0  9994
2 00082  38.8575 257.6837 1165219 205.3918 148.4796 12.26765533984852
Epoch (UTC): 29 May 2024 18:41:34
Eccentricity: 0.1165219
inclination: 38.8575°
perigee height: 638 km
apogee height: 2488 km
right ascension of ascending node: 257.6837°
argument of perigee: 205.3918°
revolutions per day: 12.26765533
mean anomaly at epoch: 148.4796°
orbit number at epoch: 98485

The dashed part of the orbit path shows where the satellite is in the earth's shadow,  

DLR